Content
SEND FEEDBACK

Daily
Averages
Monthly
Summary
United States of America

DEDEDO, GUAM


Home > North America > United States > Guam
Elevation: 364 feet     Latitude: 13 33N     Longitude: 144 49E

WEATHER
 
SELECT A DAY
Number of Records: 215,568;   Date Range: 1/1/95 - 12/19/14
 
SHARE

PRINT THIS DATA

[ ← Previous Day ]
WEATHER ALMANAC - AUGUST 18, 2014
[ Next Day → ]
[ °C ]   °F
Weather ElementAverageHighLow
Temperature83.5 °F89.1 °F (12:54 pm)79 °F (7:54 pm)
Dewpoint76.9 °F79 °F (2:54 pm)75.2 °F (12:49 am)
Humidity80.8 %94 % (11:54 pm)66 % (9:28 am)
Barometer29.87 in29.93 in (11:01 pm)29.82 in (6:54 pm)
Wind Speed5.8 mph11.5 mph (12:08 am)
Wind Gust17.3 mph (1:18 pm)
Weather ElementAverage
Visibility10 mi
Wind DirectionE (88.3 °)

Weather ElementTotal
Precipitation---
Cooling Degree Days19.1 (Base 65)
Growing Degree Days34.1 (Base 50)
Averaged from 29 records on August 18, 2014
WEATHER CONDITIONS BREAKOUT
WIND DIRECTION BREAKOUT
WEATHER BY HOUR - AUGUST 18, 2014
[ °C ]   °F
Local TimeTemperatureDewpointHumidityBarometerVisibilityWind DirectionWind SpeedGust SpeedPrecipitationEventsConditions
12:54 AM79.0 °F77.0 °F94 %29.86 in10.0 miNNE (20°)3.5 mphClear
1:54 AM79.0 °F75.9 °F90 %29.85 in10.0 miNE (40°)5.8 mphClear
2:54 AM79.0 °F75.9 °F90 %29.84 in10.0 miNE (40°)5.8 mphClear
3:54 AM79.0 °F75.9 °F90 %29.84 in10.0 miNE (40°)5.8 mphClear
4:54 AM79.0 °F75.9 °F90 %29.85 in10.0 miNE (50°)3.5 mphClear
5:54 AM79.0 °F75.9 °F90 %29.86 in10.0 miNE (50°)4.6 mphClear
6:54 AM80.1 °F77.0 °F90 %29.87 in10.0 miCalmMostly Cloudy
7:54 AM84.0 °F78.1 °F82 %29.88 in10.0 miNE (50°)5.8 mphClear
8:36 AM84.2 °F78.8 °F84 %29.90 in10.0 miNE (50°)6.9 mphMostly Cloudy
8:54 AM84.9 °F78.1 °F80 %29.88 in10.0 miNE (40°)5.8 mphMostly Cloudy
9:28 AM87.8 °F75.2 °F66 %29.90 in10.0 miENE (60°)8.1 mphScattered Clouds
9:54 AM87.1 °F75.9 °F69 %29.88 in10.0 miENE (70°)3.5 mphScattered Clouds
10:54 AM88.0 °F77.0 °F70 %29.87 in10.0 miEast (100°)10.4 mphScattered Clouds
11:54 AM87.1 °F79.0 °F77 %29.86 in10.0 miESE (110°)10.4 mphScattered Clouds
12:54 PM89.1 °F78.1 °F70 %29.84 in10.0 miSE (130°)9.2 mphScattered Clouds
1:48 PM87.8 °F77.0 °F70 %29.85 in10.0 miSE (140°)11.5 mph17.3 mphMostly Cloudy
1:54 PM88.0 °F77.0 °F70 %29.83 in10.0 miSE (140°)6.9 mph17.3 mphScattered Clouds
2:54 PM87.1 °F77.0 °F72 %29.82 in10.0 miSE (140°)8.1 mphMostly Cloudy
3:54 PM84.9 °F77.0 °F77 %29.82 in10.0 miSE (130°)8.1 mphScattered Clouds
4:54 PM84.9 °F77.0 °F77 %29.83 in10.0 miSSE (160°)6.9 mphScattered Clouds
5:54 PM84.9 °F77.0 °F77 %29.85 in10.0 miSE (140°)6.9 mphPartly Cloudy
6:54 PM82.9 °F77.0 °F82 %29.86 in10.0 miSE (140°)4.6 mphPartly Cloudy
7:54 PM82.0 °F77.0 °F85 %29.88 in10.0 miSE (140°)4.6 mphClear
8:54 PM82.0 °F75.9 °F82 %29.88 in10.0 miSE (130°)4.6 mphPartly Cloudy
9:54 PM82.0 °F75.9 °F82 %29.89 in10.0 miSE (130°)4.6 mphPartly Cloudy
10:54 PM82.0 °F77.0 °F85 %29.91 in10.0 miSE (130°)3.5 mphPartly Cloudy
11:01 PM82.4 °F77.0 °F84 %29.93 in10.0 miCalmMostly Cloudy
11:18 PM82.4 °F77.0 °F84 %29.93 in10.0 miESE (110°)5.8 mph0.00 inRainLight Rain
11:54 PM82.0 °F77.0 °F85 %29.90 in10.0 miEast (80°)3.5 mph0.00 inMostly Cloudy
Hourly data recorded from PGUM, located miles away from Dededo, Guam







STORIES FROM OUR PARTNERS